Time,TemperatureF,DewpointF,PressureIn,WindDirection,WindDirectionDegrees,WindSpeedMPH,WindSpeedGustMPH,Humidity,HourlyPrecipIn,Conditions,Clouds,dailyrainin,SoftwareType,DateUTC
2013-02-20 00:07:00,-999.0,-99.9,29.91,North,-999,-999.0,-999.0,-999,-99.99,,,0.00,weatherlink.com 1.10,2013-02-20 08:07:00,
2013-02-20 00:22:00,-999.0,-99.9,29.90,North,-999,-999.0,-999.0,-999,-99.99,,,0.00,weatherlink.com 1.10,2013-02-20 08:22:00,
2013-02-20 00:37:00,-999.0,-99.9,29.91,North,-999,-999.0,-999.0,-999,-99.99,,,0.00,weatherlink.com 1.10,2013-02-20 08:37:00,
2013-02-20 00:52:00,-999.0,-99.9,29.91,North,-999,-999.0,-999.0,-999,-99.99,,,0.00,weatherlink.com 1.10,2013-02-20 08:52:00,
2013-02-20 01:07:00,-999.0,-99.9,29.90,North,-999,-999.0,-999.0,-999,-99.99,,,0.00,weatherlink.com 1.10,2013-02-20 09:07:00,
2013-02-20 01:22:00,-999.0,-99.9,29.90,North,-999,-999.0,-999.0,-999,-99.99,,,0.00,weatherlink.com 1.10,2013-02-20 09:22:00,
2013-02-20 01:37:00,-999.0,-99.9,29.90,North,-999,-999.0,-999.0,-999,-99.99,,,0.00,weatherlink.com 1.10,2013-02-20 09:37:00,
2013-02-20 01:52:00,-999.0,-99.9,29.90,North,-999,-999.0,-999.0,-999,-99.99,,,0.00,weatherlink.com 1.10,2013-02-20 09:52:00,
2013-02-20 02:07:00,-999.0,-99.9,29.91,North,-999,-999.0,-999.0,-999,-99.99,,,0.00,weatherlink.com 1.10,2013-02-20 10:07:00,
2013-02-20 02:23:00,-999.0,-99.9,29.92,North,-999,-999.0,-999.0,-999,-99.99,,,0.00,weatherlink.com 1.10,2013-02-20 10:23:00,
2013-02-20 02:38:00,-999.0,-99.9,29.92,North,-999,-999.0,-999.0,-999,-99.99,,,0.00,weatherlink.com 1.10,2013-02-20 10:38:00,
2013-02-20 02:53:00,-999.0,-99.9,29.92,North,-999,-999.0,-999.0,-999,-99.99,,,0.00,weatherlink.com 1.10,2013-02-20 10:53:00,
2013-02-20 03:08:00,-999.0,-99.9,29.92,North,-999,-999.0,-999.0,-999,-99.99,,,0.00,weatherlink.com 1.10,2013-02-20 11:08:00,
2013-02-20 03:23:00,-999.0,-99.9,29.92,North,-999,-999.0,-999.0,-999,-99.99,,,0.00,weatherlink.com 1.10,2013-02-20 11:23:00,
2013-02-20 03:38:00,-999.0,-99.9,29.92,North,-999,-999.0,-999.0,-999,-99.99,,,0.00,weatherlink.com 1.10,2013-02-20 11:38:00,
2013-02-20 03:53:00,-999.0,-99.9,29.92,North,-999,-999.0,-999.0,-999,-99.99,,,0.00,weatherlink.com 1.10,2013-02-20 11:53:00,
2013-02-20 04:08:00,-999.0,-99.9,29.92,North,-999,-999.0,-999.0,-999,-99.99,,,0.00,weatherlink.com 1.10,2013-02-20 12:08:00,
2013-02-20 04:23:00,-999.0,-99.9,29.92,North,-999,-999.0,-999.0,-999,-99.99,,,0.00,weatherlink.com 1.10,2013-02-20 12:23:00,
2013-02-20 04:38:00,-999.0,-99.9,29.92,North,-999,-999.0,-999.0,-999,-99.99,,,0.00,weatherlink.com 1.10,2013-02-20 12:38:00,
2013-02-20 04:53:00,-999.0,-99.9,29.92,North,-999,-999.0,-999.0,-999,-99.99,,,0.00,weatherlink.com 1.10,2013-02-20 12:53:00,
2013-02-20 05:08:00,-999.0,-99.9,29.93,North,-999,-999.0,-999.0,-999,-99.99,,,0.00,weatherlink.com 1.10,2013-02-20 13:08:00,
2013-02-20 05:23:00,-999.0,-99.9,29.93,North,-999,-999.0,-999.0,-999,-99.99,,,0.00,weatherlink.com 1.10,2013-02-20 13:23:00,
2013-02-20 05:38:00,-999.0,-99.9,29.93,North,-999,-999.0,-999.0,-999,-99.99,,,0.00,weatherlink.com 1.10,2013-02-20 13:38:00,
2013-02-20 05:53:00,-999.0,-99.9,29.93,North,-999,-999.0,-999.0,-999,-99.99,,,0.00,weatherlink.com 1.10,2013-02-20 13:53:00,
2013-02-20 06:08:00,-999.0,-99.9,29.93,North,-999,-999.0,-999.0,-999,-99.99,,,0.00,weatherlink.com 1.10,2013-02-20 14:08:00,
2013-02-20 06:23:00,-999.0,-99.9,29.93,North,-999,-999.0,-999.0,-999,-99.99,,,0.00,weatherlink.com 1.10,2013-02-20 14:23:00,
2013-02-20 06:38:00,-999.0,-99.9,29.93,North,-999,-999.0,-999.0,-999,-99.99,,,0.00,weatherlink.com 1.10,2013-02-20 14:38:00,
2013-02-20 06:53:00,-999.0,-99.9,29.92,North,-999,-999.0,-999.0,-999,-99.99,,,0.00,weatherlink.com 1.10,2013-02-20 14:53:00,
2013-02-20 07:08:00,-999.0,-99.9,29.92,North,-999,-999.0,-999.0,-999,-99.99,,,0.00,weatherlink.com 1.10,2013-02-20 15:08:00,
2013-02-20 07:23:00,-999.0,-99.9,29.92,North,-999,-999.0,-999.0,-999,-99.99,,,0.00,weatherlink.com 1.10,2013-02-20 15:23:00,
2013-02-20 07:38:00,-999.0,-99.9,29.92,North,-999,-999.0,-999.0,-999,-99.99,,,0.00,weatherlink.com 1.10,2013-02-20 15:38:00,
2013-02-20 07:53:00,-999.0,-99.9,29.92,North,-999,-999.0,-999.0,-999,-99.99,,,0.00,weatherlink.com 1.10,2013-02-20 15:53:00,
2013-02-20 08:08:00,-999.0,-99.9,29.92,North,-999,-999.0,-999.0,-999,-99.99,,,0.00,weatherlink.com 1.10,2013-02-20 16:08:00,
2013-02-20 08:23:00,-999.0,-99.9,29.92,North,-999,-999.0,-999.0,-999,-99.99,,,0.00,weatherlink.com 1.10,2013-02-20 16:23:00,
2013-02-20 08:38:00,-999.0,-99.9,29.92,North,-999,-999.0,-999.0,-999,-99.99,,,0.00,weatherlink.com 1.10,2013-02-20 16:38:00,
2013-02-20 08:53:00,-999.0,-99.9,29.92,North,-999,-999.0,-999.0,-999,-99.99,,,0.00,weatherlink.com 1.10,2013-02-20 16:53:00,
2013-02-20 09:08:00,-999.0,-99.9,29.92,North,-999,-999.0,-999.0,-999,-99.99,,,0.00,weatherlink.com 1.10,2013-02-20 17:08:00,
2013-02-20 09:23:00,-999.0,-99.9,29.92,North,-999,-999.0,-999.0,-999,-99.99,,,0.00,weatherlink.com 1.10,2013-02-20 17:23:00,
2013-02-20 09:38:00,-999.0,-99.9,29.92,North,-999,-999.0,-999.0,-999,-99.99,,,0.00,weatherlink.com 1.10,2013-02-20 17:38:00,
2013-02-20 09:53:00,-999.0,-99.9,29.91,North,-999,-999.0,-999.0,-999,-99.99,,,0.00,weatherlink.com 1.10,2013-02-20 17:53:00,
2013-02-20 10:08:00,-999.0,-99.9,29.91,North,-999,-999.0,-999.0,-999,-99.99,,,0.00,weatherlink.com 1.10,2013-02-20 18:08:00,
2013-02-20 10:22:00,-999.0,-99.9,29.91,North,-999,-999.0,-999.0,-999,-99.99,,,0.00,weatherlink.com 1.10,2013-02-20 18:22:00,
2013-02-20 10:37:00,-999.0,-99.9,29.92,North,-999,-999.0,-999.0,-999,-99.99,,,0.00,weatherlink.com 1.10,2013-02-20 18:37:00,
2013-02-20 10:52:00,-999.0,-99.9,29.92,North,-999,-999.0,-999.0,-999,-99.99,,,0.00,weatherlink.com 1.10,2013-02-20 18:52:00,
2013-02-20 11:07:00,-999.0,-99.9,29.92,North,-999,-999.0,-999.0,-999,-99.99,,,0.00,weatherlink.com 1.10,2013-02-20 19:07:00,
2013-02-20 11:23:00,-999.0,-99.9,29.92,North,-999,-999.0,-999.0,-999,-99.99,,,0.00,weatherlink.com 1.10,2013-02-20 19:23:00,
2013-02-20 11:38:00,-999.0,-99.9,29.91,North,-999,-999.0,-999.0,-999,-99.99,,,0.00,weatherlink.com 1.10,2013-02-20 19:38:00,
2013-02-20 11:53:00,43.8,40.0,29.90,West,269,4.0,-999.0,86,-99.99,,,0.00,weatherlink.com 1.10,2013-02-20 19:53:00,
2013-02-20 12:07:00,43.7,40.0,29.90,SW,226,7.0,-999.0,86,-99.99,,,0.00,weatherlink.com 1.10,2013-02-20 20:07:00,
2013-02-20 12:22:00,43.6,40.0,29.90,SW,225,2.0,-999.0,86,-99.99,,,0.00,weatherlink.com 1.10,2013-02-20 20:22:00,
2013-02-20 12:37:00,43.5,40.0,29.90,South,184,1.0,-999.0,86,-99.99,,,0.00,weatherlink.com 1.10,2013-02-20 20:37:00,
2013-02-20 12:52:00,43.6,39.0,29.89,South,175,2.0,-999.0,85,-99.99,,,0.00,weatherlink.com 1.10,2013-02-20 20:52:00,
2013-02-20 13:07:00,43.7,39.0,29.89,SSW,211,2.0,-999.0,84,-99.99,,,0.00,weatherlink.com 1.10,2013-02-20 21:07:00,
2013-02-20 13:22:00,43.8,39.0,29.89,SW,222,4.0,-999.0,83,-99.99,,,0.00,weatherlink.com 1.10,2013-02-20 21:22:00,
2013-02-20 13:37:00,43.9,40.0,29.89,SSW,200,3.0,-999.0,85,-99.99,,,0.00,weatherlink.com 1.10,2013-02-20 21:37:00,
2013-02-20 13:52:00,43.8,39.0,29.88,SSW,194,0.0,-999.0,84,-99.99,,,0.00,weatherlink.com 1.10,2013-02-20 21:52:00,
2013-02-20 14:07:00,44.1,40.0,29.88,SSW,195,3.0,-999.0,84,-99.99,,,0.00,weatherlink.com 1.10,2013-02-20 22:07:00,
2013-02-20 14:22:00,44.3,39.0,29.88,South,184,1.0,-999.0,83,-99.99,,,0.00,weatherlink.com 1.10,2013-02-20 22:22:00,
2013-02-20 14:37:00,44.4,40.0,29.88,SSW,204,2.0,-999.0,83,-99.99,,,0.00,weatherlink.com 1.10,2013-02-20 22:37:00,
2013-02-20 14:52:00,44.4,40.0,29.88,NW,309,0.0,-999.0,84,-99.99,,,0.00,weatherlink.com 1.10,2013-02-20 22:52:00,
2013-02-20 15:07:00,43.9,39.0,29.89,SSE,164,0.0,-999.0,83,-99.99,,,0.01,weatherlink.com 1.10,2013-02-20 23:07:00,
2013-02-20 15:22:00,43.7,40.0,29.89,South,180,0.0,-999.0,86,-99.99,,,0.01,weatherlink.com 1.10,2013-02-20 23:22:00,
2013-02-20 15:38:00,43.3,40.0,29.89,SW,225,1.0,-999.0,88,-99.99,,,0.02,weatherlink.com 1.10,2013-02-20 23:38:00,
2013-02-20 15:53:00,42.8,40.0,29.89,South,190,2.0,-999.0,90,-99.99,,,0.03,weatherlink.com 1.10,2013-02-20 23:53:00,
2013-02-20 16:07:00,42.4,40.0,29.89,SSW,194,0.0,-999.0,90,-99.99,,,0.04,weatherlink.com 1.10,2013-02-21 00:07:00,
2013-02-20 16:22:00,42.1,40.0,29.89,SSE,154,1.0,-999.0,91,-99.99,,,0.04,weatherlink.com 1.10,2013-02-21 00:22:00,
2013-02-20 16:38:00,42.0,40.0,29.89,SSE,153,1.0,-999.0,91,-99.99,,,0.04,weatherlink.com 1.10,2013-02-21 00:38:00,
2013-02-20 16:52:00,41.9,40.0,29.89,SSE,153,0.0,-999.0,92,-99.99,,,0.05,weatherlink.com 1.10,2013-02-21 00:52:00,
2013-02-20 17:08:00,41.9,40.0,29.89,SSE,153,0.0,-999.0,92,-99.99,,,0.06,weatherlink.com 1.10,2013-02-21 01:08:00,
2013-02-20 17:23:00,41.9,40.0,29.90,SSE,153,0.0,-999.0,93,-99.99,,,0.06,weatherlink.com 1.10,2013-02-21 01:23:00,
2013-02-20 17:38:00,-999.0,-99.9,29.90,North,-999,-999.0,-999.0,-999,-99.99,,,0.06,weatherlink.com 1.10,2013-02-21 01:38:00,
2013-02-20 17:53:00,-999.0,-99.9,29.90,North,-999,-999.0,-999.0,-999,-99.99,,,0.06,weatherlink.com 1.10,2013-02-21 01:53:00,
2013-02-20 18:08:00,-999.0,-99.9,29.90,North,-999,-999.0,-999.0,-999,-99.99,,,0.06,weatherlink.com 1.10,2013-02-21 02:08:00,
2013-02-20 18:23:00,-999.0,-99.9,29.90,North,-999,-999.0,-999.0,-999,-99.99,,,0.06,weatherlink.com 1.10,2013-02-21 02:23:00,
2013-02-20 18:38:00,-999.0,-99.9,29.91,North,-999,-999.0,-999.0,-999,-99.99,,,0.06,weatherlink.com 1.10,2013-02-21 02:38:00,
2013-02-20 18:53:00,-999.0,-99.9,29.90,North,-999,-999.0,-999.0,-999,-99.99,,,0.06,weatherlink.com 1.10,2013-02-21 02:53:00,
2013-02-20 19:08:00,-999.0,-99.9,29.90,North,-999,-999.0,-999.0,-999,-99.99,,,0.06,weatherlink.com 1.10,2013-02-21 03:08:00,
2013-02-20 19:23:00,-999.0,-99.9,29.90,North,-999,-999.0,-999.0,-999,-99.99,,,0.06,weatherlink.com 1.10,2013-02-21 03:23:00,
2013-02-20 19:38:00,-999.0,-99.9,29.90,North,-999,-999.0,-999.0,-999,-99.99,,,0.06,weatherlink.com 1.10,2013-02-21 03:38:00,
2013-02-20 19:53:00,-999.0,-99.9,29.91,North,-999,-999.0,-999.0,-999,-99.99,,,0.06,weatherlink.com 1.10,2013-02-21 03:53:00,
2013-02-20 20:08:00,-999.0,-99.9,29.90,North,-999,-999.0,-999.0,-999,-99.99,,,0.06,weatherlink.com 1.10,2013-02-21 04:08:00,
2013-02-20 20:23:00,-999.0,-99.9,29.90,North,-999,-999.0,-999.0,-999,-99.99,,,0.06,weatherlink.com 1.10,2013-02-21 04:23:00,
2013-02-20 20:38:00,-999.0,-99.9,29.90,North,-999,-999.0,-999.0,-999,-99.99,,,0.06,weatherlink.com 1.10,2013-02-21 04:38:00,
2013-02-20 20:53:00,-999.0,-99.9,29.91,North,-999,-999.0,-999.0,-999,-99.99,,,0.06,weatherlink.com 1.10,2013-02-21 04:53:00,
2013-02-20 21:08:00,-999.0,-99.9,29.90,North,-999,-999.0,-999.0,-999,-99.99,,,0.06,weatherlink.com 1.10,2013-02-21 05:08:00,
2013-02-20 21:23:00,-999.0,-99.9,29.90,North,-999,-999.0,-999.0,-999,-99.99,,,0.06,weatherlink.com 1.10,2013-02-21 05:23:00,
2013-02-20 21:38:00,-999.0,-99.9,29.91,North,-999,-999.0,-999.0,-999,-99.99,,,0.06,weatherlink.com 1.10,2013-02-21 05:38:00,
2013-02-20 21:53:00,-999.0,-99.9,29.91,North,-999,-999.0,-999.0,-999,-99.99,,,0.06,weatherlink.com 1.10,2013-02-21 05:53:00,
2013-02-20 22:07:00,-999.0,-99.9,29.91,North,-999,-999.0,-999.0,-999,-99.99,,,0.06,weatherlink.com 1.10,2013-02-21 06:07:00,
2013-02-20 22:23:00,-999.0,-99.9,29.92,North,-999,-999.0,-999.0,-999,-99.99,,,0.06,weatherlink.com 1.10,2013-02-21 06:23:00,
2013-02-20 22:38:00,-999.0,-99.9,29.92,North,-999,-999.0,-999.0,-999,-99.99,,,0.06,weatherlink.com 1.10,2013-02-21 06:38:00,
2013-02-20 22:53:00,-999.0,-99.9,29.91,North,-999,-999.0,-999.0,-999,-99.99,,,0.06,weatherlink.com 1.10,2013-02-21 06:53:00,
2013-02-20 23:08:00,-999.0,-99.9,29.91,North,-999,-999.0,-999.0,-999,-99.99,,,0.06,weatherlink.com 1.10,2013-02-21 07:08:00,
2013-02-20 23:23:00,-999.0,-99.9,29.90,North,-999,-999.0,-999.0,-999,-99.99,,,0.06,weatherlink.com 1.10,2013-02-21 07:23:00,
2013-02-20 23:38:00,-999.0,-99.9,29.90,North,-999,-999.0,-999.0,-999,-99.99,,,0.06,weatherlink.com 1.10,2013-02-21 07:38:00,
2013-02-20 23:53:00,-999.0,-99.9,29.90,North,-999,-999.0,-999.0,-999,-99.99,,,0.06,weatherlink.com 1.10,2013-02-21 07:53:00,